Theta_e
304 304 303 303 303 303 303 303 304 305 306 307 306 307 307 308 309 310 311 311 312 313 313 313 312 311 311 311 312 311 310 309 309 309 308 307 306 307 307 307 307 305 306
304 304 304 304 304 304 303 304 305 304 304 306 306 307 306 307 310 308 309 308 310 311 311 311 311 311 311 311 310 309 308 308 307 306 305 305 305 306 305 305 306 307 305
303 303 303 303 303 303 304 305 304 304 305 306 306 306 307 308 310 307 306 309 310 310 310 309 309 309 308 307 306 306 305 305 305 305 305 304 305 305 305 304 305 306 306
304 303 303 305 304 303 304 303 304 305 306 307 305 306 306 307 308 306 304 308 309 309 308 307 307 306 305 304 305 304 304 304 305 306 305 305 305 304 304 304 304 304 305
303 303 303 304 303 303 303 304 305 305 306 306 306 306 308 307 307 306 307 308 307 307 306 304 304 304 304 303 303 301 301 302 304 304 305 304 305 304 304 302 302 303 305
303 303 304 303 304 305 305 305 305 306 305 305 305 304 305 305 305 305 305 305 305 305 305 305 306 305 303 302 304 304 304 304 303 303 304 305 304 304 301 301 303 303 303
303 303 303 305 305 305 304 305 305 304 304 304 303 304 305 305 304 305 305 305 304 304 304 303 302 302 301 299 300 302 305 305 305 305 305 304 303 301 301 301 301 302 303
303 304 305 305 303 303 305 305 305 305 306 305 305 305 304 302 304 305 305 307 307 306 304 303 299 301 301 300 301 304 305 306 306 305 304 303 303 302 301 301 302 302 303
303 304 304 303 303 305 305 305 306 306 305 306 306 300 299 298 298 304 305 305 304 305 303 302 299 300 299 303 303 304 304 304 304 305 305 303 302 302 302 302 302 302 302
304 304 304 304 306 306 305 305 305 305 305 305 307 305 304 302 300 300 301 304 303 302 301 302 300 301 300 300 300 300 300 301 302 302 303 303 302 302 302 302 301 301 301
304 304 306 306 305 305 305 306 305 306 306 304 304 304 303 303 301 300 301 302 303 303 302 301 301 301 301 301 301 301 301 301 300 301 301 301 301 301 301 301 301 301 301
305 305 305 305 305 304 303 304 304 304 304 304 304 303 302 299 298 301 301 302 302 303 303 302 301 301 301 302 301 301 301 302 301 300 299 300 300 300 301 301 300 300 301
305 305 304 300 303 303 301 297 300 302 302 303 301 302 301 298 296 297 299 300 301 301 301 301 301 300 300 300 300 300 300 299 299 301 300 299 300 299 299 300 300 299 299
305 305 305 304 303 298 298 298 296 296 296 297 301 300 298 297 296 298 298 299 300 300 301 301 301 300 300 300 300 299 300 299 301 301 300 299 299 299 299 299 299 298 299
304 305 305 305 305 305 304 303 302 301 298 297 297 297 297 297 298 299 300 300 300 301 302 302 301 301 301 300 299 299 299 299 300 299 299 298 298 297 297 298 298 298 299
304 304 304 304 304 304 304 304 304 302 301 300 299 298 298 298 298 300 300 301 301 302 302 301 301 301 300 299 298 299 299 299 299 299 299 298 298 297 297 297 298 298 298
303 304 304 304 304 304 304 304 304 303 302 301 300 299 299 300 300 300 301 302 301 300 300 299 299 298 298 298 298 298 298 297 299 299 298 299 297 297 297 297 297 298 298
304 304 304 304 303 303 304 303 302 302 302 302 301 300 300 300 301 301 302 301 301 301 300 299 298 298 298 298 297 298 297 296 297 298 298 298 297 296 297 297 297 297 297
301 302 304 304 304 303 303 303 303 303 303 302 301 300 301 302 302 302 302 301 301 300 300 299 298 298 298 297 297 297 296 295 296 297 297 296 296 296 297 297 297 297 297
305 303 303 303 304 303 304 304 303 303 303 303 302 301 301 302 302 302 302 301 300 300 299 299 298 297 297 297 296 296 295 294 295 297 297 297 296 296 296 297 297 297 296
305 304 303 304 304 303 303 304 303 303 303 302 302 301 301 302 302 302 301 301 300 299 299 299 298 297 296 296 295 294 294 293 295 296 297 296 297 297 297 297 297 296 296
305 304 304 304 304 303 303 303 303 303 303 303 302 302 302 302 302 301 301 300 300 299 299 298 297 296 296 294 294 293 293 294 295 296 296 296 296 296 297 297 296 296 295
305 304 304 304 304 303 304 304 304 303 303 303 303 302 302 302 302 301 301 300 300 299 299 298 298 297 296 296 295 293 294 294 295 296 297 297 296 296 297 297 296 296 296
304 305 304 304 304 304 304 304 304 304 303 304 303 303 302 302 301 301 301 300 300 299 299 298 298 297 296 296 296 294 294 295 296 297 298 297 297 297 297 297 296 295 296
305 304 304 304 304 304 304 304 304 304 304 303 303 303 303 302 301 301 300 300 299 299 299 298 298 298 296 296 296 295 294 295 297 297 298 298 298 297 297 297 296 296 296
305 304 304 304 304 304 304 304 304 304 304 303 303 303 303 302 302 300 300 300 300 299 299 298 298 298 295 295 295 296 294 296 297 297 298 298 298 298 297 296 296 297 297
Wind_Speed
19 20 21 20 19 17 16 16 16 16 18 19 20 18 18 21 19 17 15 14 15 13 11 9 9 11 11 12 11 12 12 15 20 21 23 28 26 23 21 18 16 15 11
18 16 14 15 15 18 19 19 17 18 16 16 18 18 17 16 18 18 16 16 15 16 14 11 10 10 9 8 11 11 13 14 19 23 18 18 16 14 15 13 13 13 12
18 16 16 15 16 16 16 15 18 16 17 18 17 17 16 15 13 16 14 15 15 11 12 12 12 13 15 15 14 13 11 10 9 14 17 17 19 12 16 13 15 15 15
16 18 17 19 19 19 16 14 16 17 15 15 16 14 12 10 15 16 12 13 13 13 16 15 16 15 13 12 10 12 11 12 10 13 12 13 15 13 15 17 17 12 15
17 16 15 18 16 15 14 10 13 15 18 20 21 23 20 14 17 17 14 13 15 15 16 16 19 17 15 15 14 12 12 10 9 11 11 13 12 15 17 18 20 18 13
18 17 17 16 15 17 20 21 20 23 21 24 26 25 28 28 26 25 24 21 21 21 19 17 15 17 15 16 13 10 11 14 13 12 12 14 12 13 17 20 19 21 21
13 15 15 18 20 20 21 24 28 24 21 27 28 27 25 23 22 20 19 19 21 21 18 21 15 17 17 15 14 12 12 16 16 14 13 15 16 15 19 21 20 19 17
11 12 16 17 19 20 21 24 25 21 21 23 22 20 24 20 17 16 15 12 11 12 16 24 23 19 19 17 15 17 17 15 13 12 14 17 13 14 17 18 17 19 14
11 16 17 19 17 20 20 22 18 18 18 15 19 23 23 26 20 14 18 20 20 9 21 23 23 23 22 17 19 18 15 17 15 15 16 16 13 15 18 18 17 18 18
17 17 17 15 15 15 18 20 19 18 17 17 13 18 22 24 25 28 16 14 18 17 17 16 23 21 23 25 21 20 19 20 21 19 16 15 14 16 16 17 17 16 15
13 17 15 13 16 17 15 16 17 13 11 13 13 17 20 20 20 19 21 16 14 13 16 20 20 21 20 21 20 18 17 16 21 20 21 18 19 17 18 15 13 14 15
15 16 13 10 11 14 8 9 9 16 15 14 15 15 16 18 15 13 15 15 16 14 15 17 20 20 19 22 22 20 16 17 22 18 21 22 22 21 20 14 16 15 11
12 9 8 12 8 14 17 16 10 7 10 13 13 13 18 20 19 16 11 11 10 14 17 16 20 21 20 20 21 21 16 22 20 17 19 21 22 20 18 17 13 14 12
6 6 7 13 16 18 15 21 24 22 19 16 10 15 13 16 18 21 21 20 17 17 18 19 19 19 20 20 21 20 18 22 17 22 18 25 19 22 17 18 17 17 14
5 5 5 8 10 13 15 18 21 21 21 22 20 16 19 20 18 16 21 21 19 19 18 19 21 22 23 23 23 22 22 22 18 25 26 26 24 22 18 14 15 13 16
5 7 8 7 8 9 13 14 13 15 16 18 22 21 22 22 16 16 18 17 20 22 21 22 23 23 23 24 25 24 24 23 23 28 23 27 27 20 18 15 14 16 15
8 6 7 9 8 8 11 11 12 14 14 13 17 21 20 20 22 17 18 19 22 21 23 23 23 25 24 24 25 25 25 25 24 26 30 28 25 21 17 17 15 13 15
6 8 7 8 10 10 9 10 10 12 14 15 17 19 17 17 16 19 20 21 21 22 23 24 24 25 25 25 26 26 25 27 24 29 33 30 24 19 16 15 15 14 12
10 5 2 5 8 9 10 10 9 10 11 10 12 18 14 15 15 18 19 19 21 22 23 25 25 26 26 27 26 27 27 27 24 27 34 30 22 17 17 14 12 12 10
7 12 8 8 8 9 9 10 10 11 11 11 10 18 15 14 16 16 18 19 20 21 23 24 25 26 26 27 27 28 28 32 26 27 35 32 20 17 15 13 11 10 9
3 8 10 10 9 9 9 9 10 11 11 12 11 13 18 15 15 16 17 18 19 20 22 23 25 26 26 27 28 27 29 29 32 29 37 33 19 19 14 11 9 8 7
3 6 6 8 8 8 9 7 10 12 13 11 12 13 15 14 14 14 16 16 17 18 19 20 22 24 26 27 29 28 30 31 35 34 37 26 19 16 12 8 8 7 6
2 6 8 8 7 11 9 11 10 9 11 12 11 12 12 13 13 13 14 15 15 16 17 18 20 22 26 30 32 31 28 32 35 38 29 26 21 15 11 8 8 8 8
8 5 7 7 7 8 8 10 11 12 12 11 11 11 12 13 12 12 13 14 14 15 15 16 18 24 27 31 34 31 25 30 32 38 26 26 21 15 12 9 9 11 12
6 6 7 8 8 9 11 11 12 13 12 14 12 10 10 10 10 11 11 11 13 13 14 15 17 23 29 31 35 30 24 26 32 38 27 29 20 15 14 12 11 12 12
5 6 7 8 9 10 11 11 12 11 13 14 13 11 10 11 9 10 8 10 11 11 12 13 15 22 27 31 34 31 27 23 30 35 31 27 19 17 17 17 17 14 13
Wind_Direction
352 358 359 1 1 352 349 344 346 347 345 346 347 343 343 351 355 347 343 342 345 1 359 347 340 332 333 325 322 327 320 318 310 311 310 310 314 313 309 303 303 299 301
360 352 356 355 360 359 0 5 1 354 355 356 347 347 1 4 1 6 14 19 11 18 5 2 353 347 344 347 332 322 306 297 303 310 328 348 343 337 330 317 318 316 306
351 356 3 3 353 353 341 352 356 359 6 351 355 344 345 353 358 353 359 13 3 355 354 351 351 338 332 328 332 327 328 343 343 338 339 339 336 341 353 351 333 327 313
360 3 12 357 354 359 3 1 8 9 5 355 348 351 351 19 336 337 357 3 3 7 5 357 350 350 359 9 26 1 349 4 359 351 354 346 1 5 358 344 330 331 322
6 10 9 11 7 10 16 34 22 19 36 43 43 40 43 43 34 28 33 15 7 12 13 42 43 37 28 25 18 14 10 12 8 14 0 350 2 355 350 345 332 327 320
13 26 23 22 22 39 52 62 53 53 50 46 42 49 56 58 57 58 50 47 51 50 38 25 20 3 9 354 356 354 341 349 342 343 342 339 343 339 339 345 342 333 331
21 29 38 55 57 58 51 58 56 49 45 49 48 48 50 49 46 45 43 42 41 37 26 15 2 350 346 345 347 337 331 324 322 324 325 331 331 333 333 336 344 339 331
28 33 55 53 53 57 50 49 46 40 36 34 37 26 25 29 28 29 26 15 9 20 14 16 17 23 17 13 13 358 347 339 336 332 335 333 328 328 332 331 341 336 335
45 65 63 67 53 43 40 47 45 35 34 31 28 32 39 36 30 21 40 37 30 23 21 15 15 33 33 30 26 19 14 9 10 352 342 349 345 341 344 334 341 343 337
78 59 66 64 40 29 33 35 38 41 32 29 16 9 20 24 25 32 33 46 35 28 16 8 26 23 29 29 26 16 13 14 11 6 359 353 345 339 337 337 332 335 338
69 76 56 44 38 32 28 30 26 23 13 33 33 33 20 12 8 25 35 40 31 23 10 8 9 11 10 12 16 21 18 17 10 357 354 348 348 346 349 346 343 338 337
58 41 38 38 39 16 16 35 30 39 29 29 30 23 2 350 356 26 34 25 20 12 356 358 3 0 6 2 7 10 7 3 353 358 1 357 352 349 346 348 347 338 343
58 43 32 46 78 55 20 39 44 35 46 30 18 17 6 357 20 20 8 16 21 13 3 9 5 7 10 9 7 7 20 1 352 353 357 359 348 345 337 341 333 335 345
56 47 29 24 35 48 51 37 36 36 36 28 29 7 8 3 19 31 38 40 33 23 17 16 6 6 8 7 6 8 2 6 3 4 357 344 342 337 341 343 337 343 338
57 51 33 18 1 6 7 17 23 25 28 30 24 21 18 16 23 32 33 26 14 8 14 10 8 8 8 7 5 5 5 8 5 351 349 354 349 346 346 347 345 337 339
68 39 47 30 22 8 353 350 1 11 14 19 22 22 28 23 25 28 12 8 21 14 16 12 10 8 7 6 4 3 4 2 354 354 348 343 347 350 348 345 351 341 349
43 52 28 17 4 360 6 352 356 2 359 5 10 14 23 20 28 25 21 22 18 13 12 12 10 7 6 6 3 1 2 1 353 343 346 351 347 341 339 340 340 341 339
2 9 30 11 6 3 358 2 8 7 4 4 1 359 3 356 5 21 19 17 13 15 12 10 11 8 5 4 2 1 3 0 357 340 344 350 350 348 349 340 342 337 334
26 353 58 12 344 357 4 358 2 0 358 357 351 3 351 353 16 19 18 11 12 15 11 9 10 8 6 5 2 1 360 349 351 337 346 353 352 350 349 353 355 352 351
343 27 32 10 360 355 356 356 357 355 355 356 347 5 20 19 16 11 10 11 11 13 11 9 9 7 5 3 359 359 351 344 353 339 351 357 357 355 350 345 352 356 352
320 315 356 358 355 355 343 351 352 352 355 357 352 355 10 9 12 8 8 7 9 10 10 11 11 7 2 0 354 358 347 356 0 351 354 352 355 356 353 357 7 353 8
328 342 337 339 347 348 352 356 352 351 350 353 357 354 0 8 2 5 3 4 6 7 8 9 8 5 359 357 357 356 356 359 355 355 352 355 358 354 358 13 14 22 57
343 335 334 338 346 332 345 341 336 347 348 346 358 353 352 353 355 0 0 1 2 7 8 8 2 5 359 8 9 7 1 357 353 356 2 9 9 11 17 37 40 51 79
335 333 339 339 330 343 338 340 338 342 343 342 347 349 350 350 353 357 359 1 1 2 6 3 357 359 1 7 7 9 3 354 360 3 10 6 14 23 33 49 59 70 93
339 343 339 340 338 340 338 343 341 341 345 347 342 338 336 342 349 352 354 359 357 2 2 4 356 350 0 5 6 7 8 0 4 7 10 14 22 32 43 58 72 88 90
356 353 343 343 345 345 341 343 338 341 345 337 340 333 334 330 342 341 344 350 354 359 0 1 353 343 356 5 8 8 12 15 5 9 13 13 28 46 61 73 81 78 96